Orbital Elements at Epoch 2459000.5 (2020-May-31.0) TDB
Reference: JPL 24 (heliocentric ecliptic J2000)
Element | Value | Uncertainty (1-sigma) | Units |
e | .108018535984173 | 3.5107e-08 | |
a | 2.28967860773087 | 8.3183e-09 | au |
q | 2.042350876649501 | 7.9101e-08 | au |
i | 4.623963047312466 | 3.7886e-06 | deg |
node | 50.1017687583904 | 4.676e-05 | deg |
peri | 157.6293029364269 | 5.0016e-05 | deg |
M | 181.7318216265423 | 1.7839e-05 | deg |
tp | 2459627.159377078275 (2022-Feb-16.65937708) | 6.3834e-05 | TDB |
period | 1265.494368128732 3.46 | 6.8962e-06 1.888e-08 | d yr |
n | .2844738064953435 | 1.5502e-09 | deg/d |
Q | 2.537006338812238 | 9.2168e-09 | au |
|
| | Orbit Determination Parameters
Additional Information
|